www.pogodaiklimat.ru

Погода и климат >> Архив погоды >> Мексика >> Мерида


АРХИВ ПОГОДЫ в Мериде

Время (UTC), дата Ветер
(напр.,м/с)
 
Видим.   Явления Облачность Т
(С)
Тd
(С)
f
(%)
Тe
(С)
Тes
(С)
Комфортность P
(гПа)
Po
(гПа)
Тmin
(С)
Tmax
(С)
R
(мм)
R24
(мм)
S
(см)
21 8.02 СВ 5 10 км 5/5 600 м
[Cu med, cong]
+30.5 +22.8 64 +40 +42 очень
душно
1017.5 1016.2
00 9.02 СВ 6 5000 м ясно +25.8 +19.0 66 +31 +31 очень
душно
1018.4 1017.1 +20.6 +31.0
03 9.02 СВ 4 5000 м ясно +24.1 +20.6 81 +30 +30 очень
душно
1021.0 1019.8
06 9.02 В 2 5000 м 1/1 600 м
[Cu hum]
+23.2 +21.2 89 +31 +31 очень
душно
1021.4 1020.1 +31.0
09 9.02 СВ 2 5000 м ясно +22.2 +21.4 95 +29 +29 очень
душно
1020.5 1019.2
12 9.02 СВ 2 5000 м ясно +21.4 +20.8 96 +27 +27 душно 1021.2 1020.0 +21.1 +31.0
15 9.02 В 4 10 км 1/1 600 м
[Cu hum]
+25.2 +21.3 79 +32 +36 очень
душно
1022.2 1020.9
18 9.02 СВ 4 10 км 8/8 600 м
[Cu hum]
+31.4 +19.8 50 +37 +39 очень
душно
1020.1 1018.9 +21.0 +31.6
21 9.02 В 6 10 км 8/8 600 м
[Sc]
+28.8 +20.4 60 +35 +36 очень
душно
1018.2 1017.0
00 10.02 В 4 5000 м 6/0 2000 м
[Ac trans Ci fib]
+26.1 +19.2 66 +31 +31 очень
душно
1018.6 1017.3 +21.0 +32.1
03 10.02 ЮВ 3 5000 м 4/0 2000 м
[Ac trans]
+24.4 +20.4 78 +30 +30 очень
душно
1020.7 1019.5
06 10.02 СВ 2 5000 м 1/1 600 м
[Cu hum]
+22.8 +20.0 84 +29 +29 очень
душно
1020.5 1019.2 +32.1
09 10.02 В 2 5000 м ясно +21.5 +20.0 91 +27 +27 душно 1018.9 1017.6
12 10.02 В 2 5000 м ясно +21.5 +19.9 91 +27 +27 душно 1018.9 1017.7 +21.0 +32.1
15 10.02 ЮВ 3 10 км 1/0 2000 м
[Ac trans]
+25.8 +22.6 83 +34 +40 очень
душно
1020.1 1018.9
18 10.02 В 3 10 км 5/5 600 м
[Cu hum]
+31.1 +21.7 57 +39 +45 очень
душно
1018.4 1017.2 +20.8 +31.4
21 10.02 ЮВ 2 10 км 6/5 600 м
[Cu hum Ac trans]
+32.8 +22.9 56 +43 +46 опасность
перегрева
1015.4 1014.1
00 11.02 СВ 3 10 км 4/4 600 м
[Cu hum]
+27.2 +20.6 67 +34 +34 очень
душно
1015.5 1014.3 +20.8 +33.1
03 11.02 СВ 3 5000 м 6/6 600 м
[Cu hum]
+25.5 +22.4 83 +33 +33 очень
душно
1016.6 1015.3
06 11.02 ЮВ 2 5000 м 1/0 2000 м
[Ac trans]
+24.3 +23.0 92 +32 +32 очень
душно
1016.9 1015.6 +20.8 +33.1
12 11.02 ЮВ 2 5000 м ясно +21.4 +20.8 96 +27 +27 душно 1015.9 1014.7 +20.8 +33.1
15 11.02 ЮВ 3 10 км 3/1 600 м
[Cu hum Ac trans]
+26.1 +23.0 83 +35 +39 очень
душно
1016.9 1015.6
18 11.02 ЮВ 5 10 км 8/8 600 м
[Cu hum]
+30.2 +23.1 66 +40 +42 очень
душно
1014.6 1013.3 +20.8 +30.4
21 11.02 ЮВ 3 10 км 6/4 600 м
[Cu hum Ac trans]
+32.8 +24.5 62 +46 +48 опасность
перегрева
1011.2 1009.9
00 12.02 ЮВ 2 10 км 6/5 600 м
[Cu hum Ci fib]
+25.4 +21.8 80 +33 +33 очень
душно
1012.2 1011.0 +20.8 +33.1
03 12.02 В 4 5000 м ясно +24.4 +21.4 83 +31 +31 очень
душно
1013.8 1012.6
06 12.02 В 2 5000 м ясно +23.4 +21.9 91 +32 +32 очень
душно
1013.7 1012.5 +33.1
09 12.02 В 2 5000 м 1/0
[Ac trans]
+22.3 +21.1 93 +29 +29 очень
душно
1013.1 1011.8
15 12.02 В 3 10 км 1/0 2000 м
[Ac trans]
+26.6 +23.1 81 +36 +41 очень
душно
1015.2 1013.9
18 12.02 В 1 10 км 6/6 600 м
[Cu hum]
+32.1 +24.8 65 +45 +52 опасность
перегрева
1013.6 1012.3 +21.2 +32.6
21 12.02 В 1 10 км 6/6 600 м
[Cu hum]
+35.2 +22.1 47 +44 +47 опасность
перегрева
1010.9 1009.7
06 13.02 С 1 5000 м {морось} 8/8 600 м
[]
+23.5 +22.3 93 +31 +31 очень
душно
1016.2 1014.9 +35.5 0.0
09 13.02 С 4 5000 м 8/8 600 м
[]
+23.2 +21.2 89 +31 +31 очень
душно
1015.6 1014.3
12 13.02 С 4 5000 м морось 9/9 600 м
[St]
+21.9 +20.5 92 +28 +28 душно 1017.0 1015.7 +21.5 +35.5 0.6
15 13.02 С 3 10 км {морось} 8/8 600 м
[Sc]
+24.1 +21.2 84 +30 +32 очень
душно
1019.2 1017.9 0.1
18 13.02 С 4 10 км 9/6 600 м
[Sc Ac trans]
+25.2 +19.8 72 +31 +33 очень
душно
1019.4 1018.2 +21.2 +25.7 0.7
21 13.02 СВ 4 10 км 9/5 600 м
[Sc Ac trans]
+25.1 +17.3 62 +29 +30 душно 1017.4 1016.2 0.0
00 14.02 С 2 10 км 8/5 600 м
[Cu med, cong Ac trans]
+23.5 +20.6 84 +29 +29 душно 1017.8 1016.6 +21.2 +26.0
03 14.02 З 1 5000 м 3/3 600 м
[Sc]
+21.0 +20.2 95 +27 +27 душно 1018.7 1017.4
06 14.02 штиль 0 5000 м 1/1 600 м
[Cu hum]
+17.4 +17.4 100 +17 +17 холодно 1018.2 1017.0 +26.0
09 14.02 З 1 5000 м 1/1 600 м
[Cu hum]
+17.3 +17.1 99 +18 +18 прохладно 1017.6 1016.4
12 14.02 штиль 0 5000 м ясно +15.0 +15.0 100 +15 +15 прохладно 1017.6 1016.3 +14.7 +26.0
15 14.02 В 3 10 км ясно +24.2 +20.9 82 +30 +36 очень
душно
1018.2 1016.9
18 14.02 В 2 10 км ясно +29.0 +22.3 67 +38 +53 опасность
солнечного
удара
1016.5 1015.3 +14.3 +29.0
21 14.02 З 2 10 км 1/0
[Ci fib]
+30.8 +22.0 59 +39 +46 очень
душно
1013.2 1011.9
00 15.02 С 4 5000 м ясно +24.6 +19.5 73 +30 +30 очень
душно
1013.7 1012.5 +14.3 +31.8
09 15.02 В 3 5000 м 1/1 600 м
[Cu hum]
+20.2 +17.8 86 +24 +24 комфорт 1014.0 1012.7
12 15.02 В 3 5000 м ясно +18.7 +17.2 91 +20 +20 по сезону 1014.1 1012.9 +18.3 +31.8
15 15.02 В 2 10 км ясно +24.5 +20.2 77 +30 +37 очень
душно
1014.9 1013.7
18 15.02 ЮВ 3 10 км 3/1 600 м
[Cu hum Ci fib]
+30.3 +24.1 69 +42 +53 опасность
перегрева
1013.8 1012.5 +18.1 +30.4

 

Местоположение метеостанции Мерида (Мексика): широта 20.98 долгота -89.65 высота над уровнем моря 9 м.

В архиве по умолчанию представлена погода в Мериде за последнюю неделю. Архивные данные за месяц целиком и за предыдущие месяцы, начиная с января 2011 года, Вы можете получить, выбрав интересующий диапазон дат из раскрывающегося списка и нажав кнопку "Ввод!".


*Определитесь, кто Вы:
робот инопланетянин человек

Внимание! Время в таблицах - всемирное. Для получения местного времени необходимо прибавить поправку, которая равна -6 ч.

Смотрите также архив погоды в соседних городах и на ближайших метеорологических станциях:

Погода в Мериде 2 (Мексика) (6 км)
Погода в Прогресо (Мексика) (36 км)
Погода в Вальядолиде (Мексика) (154 км)
Погода в Кампече (Мексика) (157 км)
Погода в Фелипе-Каррильо-Пуэрто (Мексика) (231 км)
Погода в Четумале (Мексика) (312 км)
Погода в Белизе (Белиз) (409 км)
Погода во Флоресе (Гватемала) (452 км)
Погода в Вильяэрмосе (Мексика) (479 км)
Погода в Кабо-Сан-Антонио (Куба) (497 км)

Пояснения к столбцам:

Ветер - указаны скорость ветра в м/с - средняя за 10 мин, порывы в срок и между сроками (в фигурных скобках) и направление, откуда дует ветер: С - северный, СВ - северо-восточный, В - восточный, ЮВ - юго-восточный, Ю - южный, ЮЗ - юго-западный, З - западный, СЗ - северо-западный.
Видимость - горизонтальная дальность видимости в метрах или километрах. При видимости от 1 до 10 км при отсутствии осадков обычно наблюдается дымка, при ухудшении видимости до 1 км и менее - туман. В сухую погоду видимость может ухудшаться дымом, пылью или мглою.
Явления - указаны атмосферные явления, наблюдавшиеся в срок или в последний час перед сроком; фигурными скобками обозначены явления, наблюдавшиеся между сроками (за 1-3 часа до срока); квадратными скобками обозначены град или гололедные отложения с указанием их диаметра в мм.
Облачность - указаны через наклонную черту общая и нижняя облачность в баллах и высота нижней границы облаков в метрах; квадратными скобками обозначены формы облаков: Ci - перистые, Cs - перисто-слоистые, Cc - перисто-кучевые, Ac - высококучевые, As - высокослоистые, Sc - слоисто-кучевые, Ns - слоисто-дождевые, Cu - кучевые, Cb - кучево-дождевые. Подробнее классификацию облаков см. в Атласе облаков (PDF).
T - Температура воздуха - температура, измеренная на высоте 2 м над землей.
Td - Температура точки росы - температура, при понижении до которой содержащийся в воздухе водяной пар достигнет насыщения.
f - Относительная влажность воздуха - влажноcть воздуха, измеренная на высоте 2 м над землей.
Te - Эффективная температура - температура, которую ощущает одетый по сезону человек в тени. Характеристика душности погоды. При расчете учитывается влияние влажности воздуха и скорости ветра на теплоощущения человека.
Tes - Эффективная температура на солнце - температура, которую ощущает человек, с поправкой на солнечный нагрев. Характеристика знойности погоды. Зависит от высоты солнца над горизонтом, облачности и скорости ветра. Ночью, в пасмурную погоду, а также при ветре 12 м/с и более поправка равна нулю.
P - Атмосферное давление - приведенное к уровню моря атмосферное давление.
Po - Атмосферное давление - измеренное на уровне метеостанции атмосферное давление.
Tmin - Минимальная температура - минимум температуры воздуха на высоте 2 м над землей.
Tmax - Максимальная температура - максимум температуры воздуха на высоте 2 м над землей.
R - Количество осадков - Количество выпавших осадков за период времени, мм. При наведении курсора мыши на число - период времени, за который выпало указанное количество осадков.
R24 - Количество осадков - Количество выпавших осадков за 24 часа, мм.
S - Снежный покров - Высота снежного покрова, см. При наведении курсора мыши на число - состояние снежного покрова и степень покрытия местности в баллах.